Longview, TX

4:15 PM CDT on August 20, 2017 (GMT -0500)
Gregg County

Weather History for KGGG - March, 2013

Change the Weather History Date:

Thursday, March 28, 2013

  Actual Average Record
Temperature  
Mean Temperature 62 °F 60 °F  
Max Temperature 72 °F 72 °F 86 °F (1907)
Min Temperature 51 °F 49 °F 26 °F (1931)
Degree Days  
Heating Degree Days 3 6  
Month to date heating degree days 298 238  
Since 1 July heating degree days 1888 2142  
Cooling Degree Days 0 1  
Month to date cooling degree days 14 28  
Year to date cooling degree days 22 40  
Growing Degree Days 11 (Base 50)    
Moisture  
Dew Point 48 °F    
Average Humidity 60    
Maximum Humidity 71    
Minimum Humidity 49    
Precipitation  
Precipitation 0.00 in 0.14 in 2.50 in (1906)
Month to date precipitation 2.15 3.95  
Year to date precipitation 10.29 11.31  
Snow  
Snow 0.00 in - - ()
Month to date snowfall 0.0  
Since 1 July snowfall 0.8  
Snow Depth 0.00 in    
Sea Level Pressure  
Sea Level Pressure 30.22 in    
Wind  
Wind Speed 8 mph (SSE)    
Max Wind Speed 14 mph    
Max Gust Speed 17 mph    
Visibility 10 miles    
Events      
T = Trace of Precipitation, MM = Missing Value Source: NWS Daily Summary

Daily Weather History Graph

Daily Weather History Graph

Search for Another Location

Airport or City:

Trip Planner

Search our weather history database for the weather conditions in past years. The results will help you decide how hot, cold, wet, or windy it might be!

Date:

Astronomy

Mar. 28, 2013 Rise Set
Actual Time 7:11 AM CDT 7:36 PM CDT
Civil Twilight 6:47 AM CDT 8:00 PM CDT
Nautical Twilight 6:18 AM CDT 8:29 PM CDT
Astronomical Twilight 5:49 AM CDT 8:58 PM CDT
Moon 9:20 PM CDT (3/28) 7:46 AM CDT (3/28)
Length of Visible Light 13h 13m
Length of Day
12h 24m
Full, 98% of the Moon is Illuminated
Mar 28
Full
Apr 2
Last Quarter
Apr 10
New
Apr 18
First Quarter
Apr 25
Full

Hourly Weather History & Observations

Time (CDT) Temp. Dew Point Humidity Pressure Visibility Wind Dir Wind Speed Gust Speed Precip Events Conditions
12:53 AM 53.1 °F 39.0 °F 59% 30.23 in 10.0 mi South 12.7 mph - N/A   Clear
1:53 AM 52.0 °F 41.0 °F 66% 30.24 in 10.0 mi South 10.4 mph - N/A   Clear
2:53 AM 51.1 °F 41.0 °F 68% 30.24 in 10.0 mi South 5.8 mph - N/A   Scattered Clouds
3:53 AM 52.0 °F 42.1 °F 69% 30.23 in 10.0 mi SSE 5.8 mph - N/A   Overcast
4:53 AM 53.1 °F 42.1 °F 66% 30.23 in 10.0 mi South 8.1 mph - N/A   Overcast
5:53 AM 53.1 °F 43.0 °F 69% 30.23 in 10.0 mi South 6.9 mph - N/A   Overcast
6:53 AM 53.1 °F 44.1 °F 71% 30.25 in 10.0 mi SE 4.6 mph - N/A   Overcast
7:53 AM 53.1 °F 44.1 °F 71% 30.27 in 10.0 mi SSE 5.8 mph - N/A   Overcast
8:53 AM 55.0 °F 45.0 °F 69% 30.28 in 10.0 mi SSE 4.6 mph - N/A   Overcast
9:53 AM 57.9 °F 46.9 °F 67% 30.29 in 10.0 mi SSE 6.9 mph - N/A   Overcast
10:53 AM 62.1 °F 48.9 °F 62% 30.29 in 10.0 mi SSE 6.9 mph - N/A   Overcast
11:53 AM 66.0 °F 51.1 °F 59% 30.28 in 10.0 mi SSW 9.2 mph - N/A   Overcast
12:53 PM 66.9 °F 51.1 °F 57% 30.26 in 10.0 mi South 8.1 mph - N/A   Overcast
1:53 PM 69.1 °F 53.1 °F 57% 30.22 in 10.0 mi South 4.6 mph - N/A   Overcast
2:53 PM 71.1 °F 53.1 °F 53% 30.19 in 10.0 mi South 8.1 mph - N/A   Overcast
3:53 PM 71.1 °F 51.1 °F 49% 30.17 in 10.0 mi SSE 8.1 mph - N/A   Overcast
4:53 PM 71.1 °F 52.0 °F 51% 30.16 in 10.0 mi South 8.1 mph - N/A   Overcast
5:53 PM 70.0 °F 51.1 °F 51% 30.16 in 10.0 mi South 11.5 mph - N/A   Overcast
6:53 PM 68.0 °F 52.0 °F 56% 30.16 in 10.0 mi South 11.5 mph - N/A   Overcast
7:53 PM 66.9 °F 52.0 °F 59% 30.17 in 10.0 mi SSE 8.1 mph - N/A   Overcast
8:53 PM 64.9 °F 52.0 °F 63% 30.17 in 10.0 mi SSE 9.2 mph - N/A   Overcast
9:53 PM 64.9 °F 52.0 °F 63% 30.18 in 10.0 mi SSE 10.4 mph - N/A   Overcast
10:53 PM 64.0 °F 51.1 °F 63% 30.19 in 10.0 mi SSE 9.2 mph - N/A   Scattered Clouds
11:53 PM 62.1 °F 52.0 °F 70% 30.19 in 10.0 mi South 9.2 mph - N/A   Partly Cloudy